Regional Weather Roundup
Issued by NWS State College, PA

Home | Current Version | Previous Version | Text Only | Print | Product List | Glossary Off
Versions: 1 2 3 4 5 6 7 8 9 10 11 12 13 14 15 16 17 18 19 20 21 22 23 24 25 26 27 28 29 30 31 32 33 34 35 36 37 38 39 40 41 42 43 44 45 46 47 48 49 50

000
ASUS41 KCTP 271310
RWRCTP

REGIONAL WEATHER ROUNDUP
NATIONAL WEATHER SERVICE STATE COLLEGE PA
900 AM EDT FRI MAY 27 2016

Note: "fair" indicates few or no clouds below 12,000 feet with no
significant weather and/or obstructions to visibility.

* = STATION THAT DOES NOT REPORT PRECIPITATION /E.G. RAIN...SNOW...ETC/
    THUNDER OR FOG.

PAZ002>004-007>009-013>016-020>023-029>032-271400-
WESTERN PENNSYLVANIA

CITY           SKY/WX    TMP DP  RH WIND       PRES   REMARKS
ERIE           MOSUNNY   75  65  70 SW10      30.02R
MEADVILLE      MOSUNNY   68  64  87 SW7       30.06S
FRANKLIN*      SUNNY     72  63  73 SW9       30.10R
NEW CASTLE     FAIR      72  65  78 S7        30.07R
BEAVER COUNTY  MOSUNNY   70  64  83 SW3       30.08R
BUTLER*        MOSUNNY   72  64  78 SW9       30.11R
PITTSBURGH INT PTSUNNY   72  63  73 SW7       30.08R
PITTSBURGH     SUNNY     72  63  73 SW8       30.08R
INDIANA*       SUNNY     73  66  78 W9        30.12S
LATROBE        NOT AVBL
WASHINGTON CO* SUNNY     72  64  78 SW7       30.10R
$$

PAZ004>006-010>012-017>019-024>028-033>037-041-042-045-046-049>053-271400-
CENTRAL PENNSYLVANIA

CITY           SKY/WX    TMP DP  RH WIND       PRES   REMARKS
BRADFORD       MOSUNNY   70  62  76 SW6       30.09S
DUBOIS         MOSUNNY   70  64  81 SW8       30.09R
CLEARFIELD     MOSUNNY   69  64  84 CALM      30.10R
JOHNSTOWN      CLOUDY    70  60  70 SW7       30.12S
ALTOONA        SUNNY     73  64  73 SW9       30.11S
STATE COLLEGE  MOSUNNY   73  66  78 SW6       30.09F
WILLIAMSPORT   CLOUDY    71  62  73 SW3       30.06S
SELINSGROVE    PTSUNNY   76  65  68 SW5       30.07S
FT INDIANTOWN  SUNNY     74  66  75 SW2       30.07S
CAPITAL CITY   SUNNY     78  65  63 W8        30.07R
HARRISBURG     MOSUNNY   76  66  71 W5        30.06S
YORK           SUNNY     76  66  71 W6        30.08R
$$

PAZ038>040-043-044-047-048-054-055-060>062-067>071-271400-
EASTERN PENNSYLVANIA

CITY           SKY/WX    TMP DP  RH WIND       PRES   REMARKS
SCRANTON       MOSUNNY   76  65  68 W5        30.07S
MOUNT POCONO   CLOUDY    68  62  81 W7        30.11S
ALLENTOWN      SUNNY     75  67  76 CALM      30.07R
QUAKERTOWN*    SUNNY     75  66  73 SW5       30.08S
READING        SUNNY     77  64  64 CALM      30.06S
LANCASTER      SUNNY     76  66  71 VRB3      30.07R
COATESVILLE    SUNNY     75  66  73 VRB6      30.10R
POTTSTOWN      SUNNY     75  65  70 S6        30.08S
BLUE BELL      SUNNY     75  64  69 SW6       30.06F
DOYLESTOWN     SUNNY     74  64  71 SW5       30.07S
WILLOW GROVE   NOT AVBL
NORTH PHILA    SUNNY     78  66  66 S6        30.08F
PHILADELPHIA   MOSUNNY   77  65  66 SW9       30.07F
$$




USA.gov is the U.S. government's official web portal to all federal, state and local government web resources and services.